Weather History for Chapel Hill, NC

Change the Weather History Date:

Thursday, April 4, 2013

  Actual Average Record
Temperature  
Mean Temperature 42 °F -  
Max Temperature 48 °F 69 °F 88 °F (1963)
Min Temperature 39 °F 44 °F 27 °F (1962)
Degree Days  
Heating Degree Days 22    
Moisture  
Dew Point 31 °F    
Average Humidity 69    
Maximum Humidity 93    
Minimum Humidity 37    
Precipitation  
Precipitation 0.62 in - - ()
Sea Level Pressure  
Sea Level Pressure 30.18 in    
Wind  
Wind Speed 9 mph (NE)    
Max Wind Speed 17 mph    
Max Gust Speed 22 mph    
Visibility 7 miles    
Events Rain    
Averages and records for this station are not official NWS values.
T = Trace of Precipitation, MM = Missing Value Source: NWS Daily Summary

Daily Weather History Graph

Daily Weather History Graph

Search for Another Location

Airport:

Trip Planner

Search our weather history database for the weather conditions in past years. The results will help you decide how hot, cold, wet, or windy it might be!

Date:

Astronomy

Apr. 04, 2013 Rise Set
Actual Time 6:58 AM EDT 7:40 PM EDT
Civil Twilight 6:32 AM EDT 8:06 PM EDT
Nautical Twilight 6:01 AM EDT 8:37 PM EDT
Astronomical Twilight 5:30 AM EDT 9:08 PM EDT
Moon 3:12 AM EDT (4/4) 2:07 PM EDT (4/4)
Length of Visible Light 13h 34m
Length of Day
12h 42m
Waning Crescent, 34% of the Moon is Illuminated
Apr 4
Waning Crescent
Apr 10
New
Apr 18
First Quarter
Apr 25
Full
May 2
Last Quarter

Hourly Weather History & Observations

Time (EDT) Temp. Windchill Dew Point Humidity Pressure Visibility Wind Dir Wind Speed Gust Speed Precip Events Conditions
12:56 AM 45.0 °F 43.5 °F 24.1 °F 44% 30.30 in 10.0 mi NNW 3.5 mph - N/A   Clear
1:56 AM 45.0 °F 37.6 °F 21.0 °F 39% 30.30 in 10.0 mi NE 17.3 mph - N/A   Clear
2:56 AM 43.0 °F 38.2 °F 18.0 °F 37% 30.30 in 10.0 mi NE 8.1 mph - N/A   Clear
3:56 AM 42.1 °F 35.7 °F 19.9 °F 41% 30.30 in 10.0 mi NE 11.5 mph - N/A   Clear
4:56 AM 42.1 °F 37.1 °F 25.0 °F 51% 30.31 in 10.0 mi NE 8.1 mph - N/A   Clear
5:56 AM 41.0 °F 35.2 °F 26.1 °F 55% 30.31 in 10.0 mi ENE 9.2 mph - N/A   Clear
6:56 AM 39.9 °F 33.9 °F 26.1 °F 58% 30.33 in 10.0 mi ENE 9.2 mph - N/A   Clear
7:56 AM 41.0 °F 35.8 °F 24.1 °F 51% 30.36 in 10.0 mi ENE 8.1 mph 16.1 mph N/A   Clear
8:56 AM 43.0 °F 36.4 °F 24.1 °F 47% 30.35 in 10.0 mi ENE 12.7 mph - N/A   Mostly Cloudy
9:56 AM 43.0 °F 38.2 °F 23.0 °F 45% 30.34 in 10.0 mi ENE 8.1 mph - N/A   Clear
10:56 AM 45.0 °F 41.8 °F 23.0 °F 42% 30.32 in 10.0 mi Variable 5.8 mph - N/A   Overcast
11:56 AM 46.0 °F 43.1 °F 28.0 °F 50% 30.30 in 10.0 mi Variable 5.8 mph - 0.00 in Rain Light Rain
12:56 PM 46.9 °F - 28.9 °F 50% 30.25 in 10.0 mi ENE 9.2 mph - 0.00 in Rain Light Rain
1:56 PM 44.1 °F 42.5 °F 34.0 °F 68% 30.24 in 8.0 mi East 3.5 mph - 0.02 in Rain Light Rain
2:56 PM 43.0 °F 38.8 °F 36.0 °F 76% 30.22 in 8.0 mi NNE 6.9 mph - 0.05 in Rain Light Rain
3:56 PM 41.0 °F 34.7 °F 36.0 °F 82% 30.19 in 6.0 mi NNE 10.4 mph - 0.12 in Rain Light Rain
4:56 PM 41.0 °F 34.7 °F 37.0 °F 86% 30.15 in 6.0 mi NE 10.4 mph - 0.05 in Rain Light Rain
6:18 PM 39.9 °F 31.4 °F 36.0 °F 86% 30.10 in 2.5 mi NE 16.1 mph 21.9 mph 0.04 in Rain Rain
6:25 PM 39.0 °F 31.4 °F 36.0 °F 89% 30.10 in 2.5 mi NE 12.7 mph 21.9 mph 0.05 in Rain Rain
6:31 PM 39.0 °F 31.4 °F 36.0 °F 89% 30.10 in 3.0 mi NE 12.7 mph 20.7 mph 0.05 in Rain Light Rain
6:38 PM 39.0 °F 31.8 °F 36.0 °F 89% 30.10 in 4.0 mi NE 11.5 mph 19.6 mph 0.06 in Rain Light Rain
6:56 PM 39.0 °F 31.4 °F 36.0 °F 89% 30.08 in 6.0 mi NE 12.7 mph - 0.06 in Rain Light Rain
7:56 PM 39.0 °F 30.6 °F 36.0 °F 89% 30.05 in 7.0 mi NE 15.0 mph 20.7 mph 0.01 in Rain Light Rain
8:53 PM 39.2 °F 32.5 °F 35.6 °F 87% 30.05 in 2.0 mi NNE 10.4 mph - 0.11 in Rain Heavy Rain
8:56 PM 39.0 °F 31.8 °F 36.0 °F 89% 30.04 in 2.0 mi NE 11.5 mph - 0.12 in Rain Rain
9:19 PM 39.0 °F 31.8 °F 36.0 °F 89% 30.02 in 3.0 mi NE 11.5 mph 17.3 mph 0.07 in Rain Light Rain
9:56 PM 39.0 °F 31.4 °F 36.0 °F 89% 30.00 in 5.0 mi NNE 12.7 mph 21.9 mph 0.10 in Rain Light Rain
10:06 PM 39.0 °F 32.3 °F 36.0 °F 89% 29.99 in 4.0 mi NNE 10.4 mph - 0.01 in Rain Light Rain
10:56 PM 39.0 °F 32.3 °F 36.0 °F 89% 29.96 in 5.0 mi NNE 10.4 mph - 0.06 in Rain Light Rain
11:56 PM 39.0 °F 34.0 °F 37.0 °F 93% 29.94 in 6.0 mi North 6.9 mph - 0.03 in Rain Light Rain